Regional Weather Roundup
Issued by NWS Charleston, WV

Home | Current Version | Previous Version | Graphics & Text | Print | Product List | Glossary On
Versions: 1 2 3 4 5 6 7 8 9 10 11 12 13 14 15 16 17 18 19 20 21 22 23 24 25 26 27 28 29 30 31 32 33 34 35 36 37 38 39 40 41 42 43 44 45 46 47 48 49 50
000
ASUS41 KRLX 210710
RWRRLX
West Virginia Regional Weather Roundup
National Weather Service Charleston WV
300 AM EDT SUN SEP 21 2014

Note: "fair" indicates few or no clouds below 12,000 feet with no
significant weather and/or obstructions to visibility.

WVZ003-210800-
Northern Panhandle of West Virginia

CITY           SKY/WX    TMP DP  RH WIND       PRES   REMARKS
WHEELING       MOCLDY    67  62  84 S12       29.89F
$$

WVZ009-210800-
Northwest West Virginia

CITY           SKY/WX    TMP DP  RH WIND       PRES   REMARKS
PARKERSBURG    PTCLDY    67  63  87 S9        29.92F
$$

WVZ006-210800-
Western West Virginia

CITY           SKY/WX    TMP DP  RH WIND       PRES   REMARKS
HUNTINGTON     PTCLDY    66  64  93 S8        29.92F
$$

WVZ015-210800-
West Central West Virginia

CITY           SKY/WX    TMP DP  RH WIND       PRES   REMARKS
CHARLESTON     PTCLDY    61  61 100 CALM      29.94F
$$

WVZ031-210800-
North Central West Virginia

CITY           SKY/WX    TMP DP  RH WIND       PRES   REMARKS
CLARKSBURG     MOCLDY    62  59  90 CALM      29.94F
MORGANTOWN     CLEAR     66  58  75 S5        29.94F
$$

WVZ035-042-045-210800-
South Central West Virginia

CITY           SKY/WX    TMP DP  RH WIND       PRES   REMARKS
BECKLEY        CLEAR     60  54  80 S3        30.03F
BLUEFIELD      CLEAR     61  54  77 W5        30.05F
LEWISBURG      FOG       54  53  94 CALM      30.03F VSB<1/4
$$

WVZ047-210800-
Northern Mountains of West Virginia

CITY           SKY/WX    TMP DP  RH WIND       PRES   REMARKS
ELKINS         FOG       53  53 100 CALM      30.00F VSB 1/2
$$

WVZ052-210800-
Eastern Panhandle of West Virginia

CITY           SKY/WX    TMP DP  RH WIND       PRES   REMARKS
MARTINSBURG    CLEAR     57  53  86 CALM      29.95F
PETERSBURG     CLEAR     55  53  94 NW8       29.97F FOG
$$


USA.gov is the U.S. government's official web portal to all federal, state and local government web resources and services.